User: anonymous   Login
Location: Unspecified
(0.0000°N, 0.0000°E)
Time: 02:14:18
(UTC+00:00)
Language:

SWISSCUBE - Orbit

View from above orbital plane
View from above orbital plane
View from above satellite
View from above satellite

Ground track
Ground track

The orbit data is extracted from the following two-line orbital elements,

1 35932U 09051B   17081.82147145 +.00000199 +00000-0 +55995-4 0  9992
2 35932 098.4811 218.8496 0008428 149.8398 210.3285 14.55973705397711
Epoch (UTC): 22 March 2017 19:42:55
Eccentricity: 0.0008428
inclination: 98.4811°
perigee height: 700 km
apogee height: 712 km
right ascension of ascending node: 218.8496°
argument of perigee: 149.8398°
revolutions per day: 14.55973705
mean anomaly at epoch: 210.3285°
orbit number at epoch: 39771

The dashed part of the orbit path shows where the satellite is in the earth's shadow,  

DLR